Regional Weather Roundup
Issued by NWS

Home | Current Version | Previous Version | Graphics & Text | Print | Product List | Glossary On
Versions: 1 2 3 4 5 6 7 8 9 10 11 12 13 14 15 16 17 18 19 20 21 22 23 24 25 26 27 28 29 30 31 32 33 34 35 36 37 38 39 40 41 42 43 44 45 46 47 48 49 50
000
ASUS45 KSLC 132010
RWRUT

UTAH REGIONAL WEATHER ROUNDUP
NATIONAL WEATHER SERVICE SALT LAKE CITY UT
100 PM MST SAT FEB 13 2016

UTZ001>011-023>025-132100-

NORTHERN UTAH

CITY           SKY/WX    TMP DP  RH WIND       PRES   REMARKS
BRIGHAM CITY   CLOUDY    29  27  92 CALM      30.35F
HILL AFB       PTSUNNY   30  30 100 VRB2      30.32S FOG
LOGAN          CLOUDY    27  25  92 CALM      30.32F FOG
OGDEN          CLOUDY    29  28  96 N5        30.33S FOG     WCI  24
PROVO AIRPORT  FOG       27  25  93 CALM      30.33F VSB 1/2
SALT LAKE CITY CLOUDY    31  28  89 NW8       30.34S FOG     WCI  23
VERNAL         CLOUDY    30  22  72 E6        30.22F HAZE    WCI  24
WENDOVER       CLOUDY    34  27  75 S5        30.34F WCI  30
HEBER CITY     MOSUNNY   36  23  60 CALM      30.25F
WEST JORDAN    MOSUNNY   34  30  86 NW5       30.33S WCI  30

$$

UTZ012>022-026-027-132100-

SOUTHERN/CENTRAL UTAH

CITY           SKY/WX    TMP DP  RH WIND       PRES   REMARKS
BLANDING       SUNNY     47  27  45 S3        30.30F
BRYCE CANYON   SUNNY     48  17  29 NW10      30.29F
CEDAR CITY     MOSUNNY   53  21  28 NE5       30.23F
DELTA          CLOUDY    24  24  97 CALM      30.32F
HANKSVILLE     SUNNY     46  34  61 CALM      30.27F
MILFORD        PTSUNNY   24  19  81 N9        30.29F WCI  14
MOAB/CYNLANDS  MOSUNNY   44  32  62 CALM      30.23F
PRICE          SUNNY     43  27  53 CALM      30.24F
ST GEORGE      PTCLDY    57  28  33 CALM      30.20F

$$

REGIONAL REPORTS     COLORADO/ARIZONA

CITY           SKY/WX    TMP DP  RH WIND       PRES   REMARKS
CRAIG, CO      MIX PCPN  29  19  66 CALM      30.21F
GRAND JUNCTION CLOUDY    42  30  62 N3        30.23F
RIFLE          CLOUDY    39  21  48 CALM      30.21F
MONTROSE       CLOUDY    47  29  49 N8        30.22F
CORTEZ         SUNNY     53  30  41 S5        30.23F
PAGE, AZ       SUNNY     52  32  46 CALM      30.21F
GRAND CANYON   SUNNY     62   7  11 SW10G18   30.27F
KINGMAN        SUNNY     70  22  16 N8        30.17F
FLAGSTAFF      SUNNY     61   8  12 W8        30.28F

$$

REGIONAL REPORTS    NEVADA/IDAHO/WYOMING

CITY           SKY/WX    TMP DP  RH WIND       PRES   REMARKS
LAS VEGAS, NV  PTSUNNY   69  22  16 VRB3      30.12F
ELY            PTSUNNY   50  25  37 CALM      30.33F
ELKO           SUNNY     36  23  59 CALM      30.33F
POCATELLO, ID  MOSUNNY   44  32  62 SW29G38   30.23F
BURLEY         LGT RAIN  46  32  58 W16G25    30.28F
EVANSTON, WY   SUNNY     40  22  48 SW13      30.23F WCI  32
ROCK SPRINGS   CLOUDY    43  21  41 W24       30.14F
KEMMERER       SUNNY     37  25  60 W20G25    30.18F WCI  27

$$



USA.gov is the U.S. government's official web portal to all federal, state and local government web resources and services.